EW9439 Weather Reports


Display with metric or nautical units.
time (UTC)temp
F
wind
direction
speed
MPH
gust
MPH
rain 1hr
in
rain 24hr
in
rain mn
in
humidity
%
barometer
mb
20260903004542 84 163 0.0 0.0 0.00 0.00 0.00 71 1012.3
20260903003044 85 163 0.0 0.0 0.00 0.00 0.00 70 1012.1
20260903001604 85 163 0.0 0.0 0.00 0.00 0.00 69 1012.1
20260903000059 86 163 0.0 0.0 0.00 0.00 0.00 66 1012.0
20260903000003 87 163 0.0 0.0 0.00 0.00 0.00 66 1012.0
20260902234558 88 163 0.0 0.0 0.00 0.00 0.00 64 1012.0
20260902233004 89 163 0.0 0.0 0.00 0.00 0.00 61 1012.0
20260902231512 92 163 0.0 0.0 0.00 0.00 0.00 58 1012.1
20260902230010 92 338 0.0 0.0 0.00 0.00 0.00 55 1012.0
20260902224514 92 343 0.0 0.0 0.00 0.00 0.00 54 1012.0
20260902223010 92 215 0.0 0.0 0.00 0.00 0.00 54 1012.0
20260902221521 92 201 0.0 0.0 0.00 0.00 0.00 55 1012.1
20260902220011 92 200 0.0 0.0 0.00 0.00 0.00 55 1012.1
20260902214515 92 200 0.0 0.0 0.00 0.00 0.00 53 1012.2
20260902213016 92 200 0.0 0.0 0.00 0.00 0.00 55 1012.2
20260902211517 92 221 0.0 0.0 0.00 0.00 0.00 55 1012.3
20260902210018 91 296 0.0 0.0 0.00 0.00 0.00 58 1012.4
20260902204520 92 296 0.0 0.0 0.00 0.00 0.00 52 1012.4
20260902203021 92 93 0.0 0.0 0.00 0.00 0.00 59 1012.5
20260902201521 92 93 0.0 0.0 0.00 0.00 0.00 58 1012.7
20260902200026 93 94 0.0 0.0 0.00 0.00 0.00 55 1012.8
20260902194544 93 82 0.0 0.0 0.00 0.00 0.00 56 1013.0
20260902193025 94 360 0.0 1.0 0.00 0.00 0.00 57 1013.3
20260902191536 93 50 0.0 0.0 0.00 0.00 0.00 56 1013.5
20260902190027 93 23 0.0 0.0 0.00 0.00 0.00 56 1013.7
20260902184527 93 153 0.0 0.0 0.00 0.00 0.00 54 1013.9
20260902183032 93 17 0.0 0.0 0.00 0.00 0.00 54 1014.1
20260902181533 91 32 0.0 0.0 0.00 0.00 0.00 57 1014.2
20260902180035 92 355 0.0 0.0 0.00 0.00 0.00 59 1014.3
20260902174535 91 351 0.0 0.0 0.00 0.00 0.00 57 1014.3
20260902173052 90 337 0.0 0.0 0.00 0.00 0.00 63 1014.5
20260902171543 91 337 0.0 0.0 0.00 0.00 0.00 61 1014.8
20260902170044 92 337 0.0 0.0 0.00 0.00 0.00 57 1015.0
20260902164559 92 142 0.0 0.0 0.00 0.00 0.00 60 1015.1
20260902163049 92 142 0.0 0.0 0.00 0.00 0.00 60 1015.2
20260902161553 91 142 0.0 0.0 0.00 0.00 0.00 65 1015.2
20260902160107 90 136 0.0 0.0 0.00 0.00 0.00 66 1015.4
20260902154559 89 140 0.0 0.0 0.00 0.00 0.00 67 1015.6
20260902153055 88 45 0.0 0.0 0.00 0.00 0.00 71 1015.6
20260902151557 88 45 0.0 1.0 0.00 0.00 0.00 70 1015.6
20260902150057 88 59 0.0 0.0 0.00 0.00 0.00 71 1015.6
20260902144605 87 197 0.0 0.0 0.00 0.00 0.00 74 1015.7
20260902144503 87 196 0.0 0.0 0.00 0.00 0.00 75 1015.7
20260902143058 86 196 0.0 2.0 0.00 0.00 0.00 76 1015.7
20260902143002 86 196 0.0 2.0 0.00 0.00 0.00 76 1015.7
20260902141507 85 205 0.0 0.0 0.00 0.00 0.00 78 1015.7
20260902140009 84 205 0.0 1.0 0.00 0.00 0.00 78 1015.6
20260902134507 82 205 0.0 0.0 0.00 0.00 0.00 82 1015.7
20260902133012 80 205 0.0 0.0 0.00 0.00 0.00 89 1015.7
20260902131506 77 205 0.0 0.0 0.00 0.00 0.00 93 1015.8
20260902130024 75 205 0.0 0.0 0.00 0.00 0.00 95 1015.7
20260902124511 73 205 0.0 0.0 0.00 0.00 0.00 96 1015.7
20260902123025 73 205 0.0 0.0 0.00 0.00 0.00 96 1015.6
20260902121512 72 205 0.0 0.0 0.00 0.00 0.00 95 1015.5
20260902120012 72 205 0.0 0.0 0.00 0.00 0.00 95 1015.4
20260902114523 72 205 0.0 0.0 0.00 0.00 0.00 95 1015.1
20260902113016 72 205 0.0 0.0 0.00 0.00 0.00 95 1015.1
20260902111518 72 205 0.0 0.0 0.00 0.00 0.00 95 1014.9
20260902110025 72 205 0.0 0.0 0.00 0.00 0.00 95 1014.8
20260902104523 72 205 0.0 0.0 0.00 0.00 0.00 94 1014.8
20260902103016 72 205 0.0 0.0 0.00 0.00 0.00 94 1014.7
20260902101512 72 205 0.0 0.0 0.00 0.00 0.00 94 1014.5
20260902100014 72 205 0.0 0.0 0.00 0.00 0.00 94 1014.5
20260902094518 72 205 0.0 0.0 0.00 0.00 0.00 94 1014.5
20260902093024 73 205 0.0 0.0 0.00 0.00 0.00 94 1014.3
20260902091521 73 205 0.0 0.0 0.00 0.00 0.00 94 1014.2
20260902090021 73 205 0.0 0.0 0.00 0.00 0.00 94 1014.1
20260902084526 73 205 0.0 0.0 0.00 0.00 0.00 93 1014.0
20260902083034 73 205 0.0 0.0 0.00 0.00 0.00 93 1013.7
20260902081537 73 205 0.0 0.0 0.00 0.00 0.00 93 1013.5
20260902080039 74 205 0.0 0.0 0.00 0.00 0.00 93 1013.5
20260902074530 74 205 0.0 0.0 0.00 0.00 0.00 93 1013.5
20260902073032 74 205 0.0 0.0 0.00 0.00 0.00 93 1013.6
20260902071538 74 205 0.0 0.0 0.00 0.00 0.00 92 1013.6
20260902070034 74 205 0.0 0.0 0.00 0.00 0.00 92 1013.6
20260902064536 74 205 0.0 0.0 0.00 0.00 0.00 91 1013.7
20260902063038 75 205 0.0 0.0 0.00 0.00 0.00 92 1013.8
20260902061544 75 205 0.0 0.0 0.00 0.00 0.00 91 1013.9
20260902060052 75 205 0.0 0.0 0.00 0.00 0.00 91 1013.9
20260902054544 75 205 0.0 0.0 0.00 0.00 0.00 91 1014.1
20260902053050 75 205 0.0 0.0 0.00 0.00 0.00 90 1014.1
20260902051551 75 205 0.0 0.0 0.00 0.00 0.00 90 1014.1
20260902050055 76 205 0.0 0.0 0.00 0.00 0.00 90 1014.1
20260902044555 76 205 0.0 0.0 0.00 0.00 0.00 90 1014.2
20260902043057 76 205 0.0 0.0 0.00 0.00 0.00 90 1014.1
20260902043002 76 205 0.0 0.0 0.00 0.00 0.00 90 1014.2
20260902041607 76 205 0.0 0.0 0.00 0.00 0.00 89 1014.1
20260902041502 76 205 0.0 0.0 0.00 0.00 0.00 89 1014.1
20260902040057 77 205 0.0 0.0 0.00 0.00 0.00 89 1014.1
20260902034601 77 205 0.0 0.0 0.00 0.00 0.00 88 1014.2
20260902033107 77 205 0.0 0.0 0.00 0.00 0.00 87 1014.2
20260902033003 77 205 0.0 0.0 0.00 0.00 0.00 86 1014.2
20260902031506 77 205 0.0 0.0 0.00 0.00 0.00 86 1014.1
20260902030008 78 205 0.0 0.0 0.00 0.00 0.00 85 1014.1
20260902024510 78 205 0.0 0.0 0.00 0.00 0.00 85 1014.1
20260902023025 78 205 0.0 0.0 0.00 0.00 0.00 84 1014.1
20260902021526 79 205 0.0 0.0 0.00 0.00 0.00 83 1014.0
20260902020017 79 205 0.0 0.0 0.00 0.00 0.00 82 1013.9
20260902014518 80 205 0.0 0.0 0.00 0.00 0.00 80 1013.6
20260902013019 80 205 0.0 0.0 0.00 0.00 0.00 79 1013.5
20260902011520 81 205 0.0 0.0 0.00 0.00 0.00 78 1013.4
20260902010020 81 205 0.0 0.0 0.00 0.00 0.00 76 1013.1